User: anonymous   Login
Location: Unspecified
(0.0000°N, 0.0000°E)
Time: 09:21:44
(UTC+00:00)
Language:

LEMUR 2 KANE - Orbit

View from above orbital plane
View from above orbital plane
View from above satellite
View from above satellite

Ground track
Ground track

The orbit data is extracted from the following two-line orbital elements,

1 41489U 98067JK  17086.97758356 +.00424059 +90424-4 +71968-3 0  9999
2 41489 051.6310 047.9170 0004421 102.2116 257.9874 16.02049418048465
Epoch (UTC): 27 March 2017 23:27:43
Eccentricity: 0.0004421
inclination: 51.6310°
perigee height: 266 km
apogee height: 271 km
right ascension of ascending node: 47.9170°
argument of perigee: 102.2116°
revolutions per day: 16.02049418
mean anomaly at epoch: 257.9874°
orbit number at epoch: 4846

The dashed part of the orbit path shows where the satellite is in the earth's shadow,  

DLR